Location: Kosice
(0.0000°N, 21.2500°E)
Time: 18:50:23
(UTC+01:00)

CZ-2D R/B - Pass Details

Date: 24 January 2021
Orbit: 521 x 538 km, 97.4° (Epoch: 02 March)

Event Time Altitude Azimuth Distance (km) Brightness Sun altitude
Rises 18:29:24 0° 177° (S) 2,688 7.1 -10.0°
Reaches altitude 10° 18:31:34 10° 182° (S) 1,794 6.2 -10.5°
Maximum altitude 18:35:20 51° 259° (WSW) 677 4.2 -11.4°
Drops below altitude 10° 18:39:04 10° 335° (NNW) 1,779 6.0 -12.2°
Sets 18:41:13 0° 341° (NNW) 2,664 6.8 -12.7°
